This is the latest recevied weather packets stored in our database for station/object YF9UAG-16. If no packets are shown the sender has not sent any weather packets the latest 10 day(s).
| Time | Temp. | Humidity | Pressure | Rain* | Wind** | Luminosity | Snow |
|---|---|---|---|---|---|---|---|
| 1778125506 | 31.11° C | 59% | 1007 hPa | - | - | 0 W/m² | - |
| 1778125183 | 30° C | 57% | 1007 hPa | - | - | 0 W/m² | - |
| 1778124864 | 30° C | 58% | 1007 hPa | - | - | 0 W/m² | - |
| 1778124540 | 30.56° C | 59% | 1007 hPa | - | - | 0 W/m² | - |
| 1778124218 | 30.56° C | 61% | 1007 hPa | - | - | 0 W/m² | - |
| 1778123896 | 30° C | 62% | 1007 hPa | - | - | 0 W/m² | - |
| 1778123574 | 30° C | 60% | 1007 hPa | - | - | 0 W/m² | - |
| 1778123252 | 29.44° C | 64% | 1007 hPa | - | - | 0 W/m² | - |
| 1778122929 | 30° C | 60% | 1007 hPa | - | - | 0 W/m² | - |
| 1778122608 | 30° C | 63% | 1008 hPa | - | - | 0 W/m² | - |
| 1778122285 | 30° C | 61% | 1008 hPa | - | - | 0 W/m² | - |
| 1778121964 | 29.44° C | 58% | 1008 hPa | - | - | 0 W/m² | - |
| 1778121642 | 29.44° C | 58% | 1008 hPa | - | - | 0 W/m² | - |
| 1778121319 | 28.33° C | 61% | 1008 hPa | - | - | 0 W/m² | - |
| 1778120997 | 29.44° C | 60% | 1008 hPa | - | - | 0 W/m² | - |
| 1778120675 | 29.44° C | 59% | 1008 hPa | - | - | 0 W/m² | - |
| 1778120354 | 29.44° C | 58% | 1008 hPa | - | - | 0 W/m² | - |
| 1778120032 | 29.44° C | 58% | 1008 hPa | - | - | 0 W/m² | - |
| 1778119710 | 29.44° C | 58% | 1008 hPa | - | - | 0 W/m² | - |
| 1778119388 | 29.44° C | 59% | 1008 hPa | - | - | 0 W/m² | - |
| 1778119066 | 28.89° C | 60% | 1009 hPa | - | - | 0 W/m² | - |
| 1778118744 | 29.44° C | 60% | 1009 hPa | - | - | 0 W/m² | - |
| 1778118421 | 28.89° C | 60% | 1009 hPa | - | - | 0 W/m² | - |
| 1778118099 | 29.44° C | 60% | 1009 hPa | - | - | 0 W/m² | - |
| 1778117777 | 28.89° C | 63% | 1009 hPa | - | - | 0 W/m² | - |
* Rain since midnight (hover to see other rain measurements)
** Current wind speed in m/s (hover to see current wind gust speed)